Home > Weather > Zielona Góra > Past weeks

Flag for Poland Past Weather in Zielona Góra, Poland — Yesterday and Last 2 Weeks

Now
72 °F

Thunderstorms. Partly sunny.


Feels Like: 74 °F
Forecast: 64 / 76 °F
Wind: 3 mph from West

Location: Zielona Gora

Current Time: Jul 29, 2016 at 2:20:37 PM

Latest Report: Jul 29, 2016 at 1:00 PM


Visibility: 28 mi

Pressure: 29.88 "Hg

Humidity: 70%

Dew Point: 62 °F

Location of Zielona GóraLocation

Past Weather in Zielona Góra — Graph

°F

Zielona Góra Temperature Yesterday

Maximum temperature yesterday: 76 °F (at 6:00 PM)
Minimum temperature yesterday: 60 °F (at 6:00 AM)
Average temperature yesterday: 67 °F

High & Low Weather Summary for the Past Weeks

 TemperatureHumidityPressure
High83 °F (Jul 25, 6:00 PM)99% (Jul 18, 12:00 AM)30.25 "Hg (Jul 18, 12:00 AM)
Low51 °F (Jul 14, 7:00 PM)24% (Jul 22, 7:00 PM)29.74 "Hg (Jul 14, 1:00 PM)
Average67 °F74%30.06 "Hg
* Reported Jul 14 1:00 PM — Jul 29 1:00 PM, Zielona Góra, Weather by CustomWeather, © 2016

Note: Actual official high and low records may vary slightly from our data, if they occured in-between our weather recording intervals... More about our weather records

Advertising

Zielona Góra Weather History for the Previous 24 Hours

Scroll right to see more
 ConditionsComfort  
Time TempWeatherWind HumidityBarometerVisibility
1:00 PM
Fri, Jul 29
72 °FThunderstorms. Partly sunny.3 mph70%29.88 "Hg28 mi
12:00 PM72 °FThunderstorms. Partly sunny.3 mph73%29.89 "Hg25 mi
11:00 AM70 °FScattered clouds.3 mph79%29.91 "Hg22 mi
10:00 AM66 °FPartly sunny.2 mph88%29.92 "Hg9 mi
9:00 AM64 °FSprinkles. Overcast.3 mph92%29.92 "Hg6 mi
8:00 AM66 °FOvercast.3 mph81%29.91 "Hg9 mi
7:00 AM63 °FOvercast.2 mph90%29.90 "Hg5 mi
6:00 AM63 °FFog.2 mph90%29.90 "Hg5 mi
5:00 AM62 °FPassing clouds.2 mph92%29.91 "Hg9 mi
2:00 AM65 °FPassing clouds.2 mph81%29.93 "Hg31 mi
11:00 PM
Thu, Jul 28
69 °FPassing clouds.1 mph71%29.96 "Hg31 mi
8:00 PM73 °FScattered clouds.2 mph61%29.96 "Hg19 mi
6:00 PM76 °FPassing clouds.2 mph51%29.95 "Hg19 mi
5:00 PM75 °FScattered clouds.3 mph54%29.97 "Hg16 mi
3:00 PM75 °FScattered clouds.3 mph57%29.99 "Hg16 mi
2:00 PM74 °FPartly sunny.2 mph65%30.01 "Hg12 mi
Weather by CustomWeather, © 2016

See weather overviewHow to use our weather pages